Regional Weather Roundup
Issued by NWS Lake Charles, LA

Home | Current Version | Previous Version | Text Only | Print | Product List | Glossary On
Versions: 1 2 3 4 5 6 7 8 9 10 11 12 13 14 15 16 17 18 19 20 21 22 23 24 25 26 27 28 29 30 31 32 33 34 35 36 37 38 39 40 41 42 43 44 45 46 47 48 49 50
000
ASUS44 KLCH 232310
RWRLCH
RWRLCH
REGIONAL WEATHER ROUNDUP
NATIONAL WEATHER SERVICE LAKE CHARLES LA
600 PM CDT TUE SEP 23 2014

Note: "fair" indicates few or no clouds below 12,000 feet with no
significant weather and/or obstructions to visibility.


ACROSS SOUTHEAST TEXAS

CITY           SKY/WX    TMP DP  RH WIND       PRES   REMARKS
BEAUMONT       PTSUNNY   80  57  45 N10       30.03F
BEAUMONT CITY    N/A     78  56  47 NE7       30.05S
ORANGE         MOCLDY    80  57  45 N6        30.05S
JASPER         PTSUNNY   80  53  40 CALM      30.09S
$$

ACROSS CENTRAL LOUISIANA

CITY           SKY/WX    TMP DP  RH WIND       PRES   REMARKS
LEESVILLE      MOSUNNY   77  55  45 NE6       30.06F
FULLERTON        N/A     80  54  40 NE5       30.05S
ALEXANDRIA INT MOSUNNY   79  53  40 NE7       30.05F
ESLER FIELD    MOSUNNY   82  54  37 VRB3      30.07S
DERIDDER         N/A     80  53  39 NE5       30.08S
OAKDALE        CLEAR     78  60  53 CALM      30.06S
OPELOUSAS        N/A     78  58  50 N5        30.05S
$$

ACROSS SOUTHWEST AND SOUTH CENTRAL LOUISIANA

CITY           SKY/WX    TMP DP  RH WIND       PRES   REMARKS
SULPHUR        PTCLDY    80  56  43 N5        30.05S
LAKE CHARLES   SUNNY     81  57  43 NE9       30.04S
CHENNAULT INT  SUNNY     81  55  41 N6        30.05S
CAMERON PHI    CLEAR     79  57  47 NE8       30.06S
DEQUINCY         N/A     79  57  47 NE3       30.05S
JENNINGS         N/A     82  55  40 NE6       30.04S
LAFAYETTE      SUNNY     81  56  42 NE7       30.04S
NEW IBERIA     SUNNY     83  57  41 NE8       30.04S
ABBEVILLE        N/A     79  58  47 N5        30.03S
PATTERSON      SUNNY     82  57  42 N7        30.05F
SALT POINT       N/A     84  58  40 CALM      30.01F
$$

SELECTED SITES ACROSS THE REGION

CITY           SKY/WX    TMP DP  RH WIND       PRES   REMARKS
HOUSTON BUSH   PTSUNNY   81  57  43 NE7       30.04F
HOUSTON HOBBY  MOSUNNY   81  55  40 NE12      30.03S
GALVESTON      SUNNY     82  59  45 NE12      30.03F
COLLEGE STAT   PTSUNNY   80  53  39 NE7       30.06S
CONROE         MOSUNNY   79  56  45 CALM      30.06F
HUNTSVILLE     PTSUNNY   81  52  36 E5        30.07S
LUFKIN         MOSUNNY   82  55  39 CALM      30.07F
SHREVEPORT     PTSUNNY   79  49  34 E12       30.08F
MONROE         MOSUNNY   78  49  35 N7        30.10S
NATCHEZ MS     SUNNY     77  55  47 N7        30.08S
BATON ROUGE    SUNNY     82  55  39 N6        30.04F
N.O. INTL ARPT MOSUNNY   83  51  33 NE12      30.02F
SLIDELL        SUNNY     82  55  39 N5        30.03S
$$

MARINE REPORTS

STATION/POSITION TIME  TEMP    WIND        PRES    VSBY  WAVE
                       AIR SEA DIR/SP/G                  HT/PER
                 (UTC) (F)     (DEG/KT/KT) (MB)    (MI)  (FT/S)
BUOY 30 S HIGH I 2300   80 83   50/ 12/ 14 1016.3S         3/ 7
SEA RIM ST PARK  2300   80      40/  9/ 10 1017.4F
PORT ARTHUR      2300      83   50/  3/  8 1017.0S
SABINE PASS N    2300   82 83   60/  8/ 10 1016.9F
TEXAS POINT      2300   81 82   50/  8/ 12 1017.0F
CALCASIEU PASS   NOT AVBL
LK CHARLES BEACH 2300   81                 1017.4R
MARSH ISLAND     NOT AVBL
FRESH WATER LOCK 2300   84 82   20/  7/ 12 1016.5S
AMERADA PASS     2300   81 81   50/  3/  6 1016.4S
$$


USA.gov is the U.S. government's official web portal to all federal, state and local government web resources and services.